Location: Newark
(7.1028°S, 35.3258°W)
Time: 05:38:20
(UTC+00:00)

Vanguard 3 - Pass Details

Date: 23 February 2020
Orbit: 508 x 3263 km, 33.4° (Epoch: 07 April)

Event Time Altitude Azimuth Distance (km) Brightness Sun altitude
Rises 03:52:01 0° 225° (SW) 5,517 - -64.2°
Reaches altitude 10° 03:58:04 10° 207° (SSW) 3,863 - -63.1°
Maximum altitude 04:03:30 16° 172° (S) 2,773 - -62.0°
Drops below altitude 10° 04:07:36 10° 134° (SE) 2,752 - -61.2°
Sets 04:10:49 0° 112° (ESE) 3,333 - -60.6°
